K5WXL Weather Reports


time (UTC)temp
C
wind
direction
speed
KPH
gust
KPH
rain 1hr
cm
rain 24hr
cm
rain mn
cm
humidity
%
barometer
mb
20260906213003 38 111 16.1 25.7 0.00 0.00 0.00 32 1011.4
20260906211507 38 147 9.7 25.7 0.00 0.00 0.00 31 1011.8
20260906210025 37 153 14.5 22.5 0.00 0.00 0.00 31 1012.1
20260906204518 36 121 17.7 25.7 0.00 0.00 0.00 33 1012.4
20260906203024 37 129 17.7 29.0 0.00 0.00 0.00 32 1012.5
20260906201507 37 101 12.9 29.0 0.00 0.00 0.00 34 1012.8
20260906200010 37 128 19.3 27.4 0.00 0.00 0.00 30 1013.0
20260906194517 37 133 16.1 24.1 0.00 0.00 0.00 34 1013.2
20260906193020 37 53 12.9 25.7 0.00 0.00 0.00 34 1013.4
20260906191531 37 144 20.9 30.6 0.00 0.00 0.00 34 1013.5
20260906190007 37 120 11.3 25.7 0.00 0.00 0.00 36 1013.7
20260906184511 36 70 6.4 17.7 0.00 0.00 0.00 38 1013.9
20260906183017 36 117 12.9 24.1 0.00 0.00 0.00 38 1014.1
20260906181532 36 193 8.0 27.4 0.00 0.00 0.00 39 1014.3
20260906180027 35 60 12.9 19.3 0.00 0.00 0.00 40 1014.5
20260906174508 35 39 14.5 24.1 0.00 0.00 0.00 41 1014.7
20260906173012 35 92 12.9 22.5 0.00 0.00 0.00 42 1015.2
20260906171520 35 122 11.3 22.5 0.00 0.00 0.00 42 1015.3
20260906170024 34 11 6.4 20.9 0.00 0.00 0.00 44 1015.5
20260906164530 34 137 11.3 22.5 0.00 0.00 0.00 45 1015.6
20260906163010 34 137 6.4 17.7 0.00 0.00 0.00 45 1015.6
20260906161514 34 200 4.8 11.3 0.00 0.00 0.00 45 1015.5
20260906160031 33 109 4.8 8.0 0.00 0.00 0.00 45 1015.5
20260906154539 33 108 0.0 6.4 0.00 0.00 0.00 48 1015.3
20260906153038 32 243 1.6 9.7 0.00 0.00 0.00 50 1015.4
20260906151512 31 322 0.0 9.7 0.00 0.00 0.00 54 1015.4
20260906150020 31 297 3.2 8.0 0.00 0.00 0.00 55 1015.4
20260906144526 31 128 1.6 8.0 0.00 0.00 0.00 55 1015.3
20260906143033 30 207 3.2 8.0 0.00 0.00 0.00 56 1015.4
20260906141530 29 266 0.0 6.4 0.00 0.00 0.00 60 1015.4
20260906140013 28 101 4.8 6.4 0.00 0.00 0.00 63 1015.2
20260906134523 27 116 4.8 9.7 0.00 0.00 0.00 65 1015.2
20260906133026 26 105 3.2 6.4 0.00 0.00 0.00 68 1015.2
20260906131526 25 81 4.8 6.4 0.00 0.00 0.00 70 1015.2
20260906130040 25 68 4.8 6.4 0.00 0.00 0.00 72 1015.1
20260906124518 23 61 3.2 6.4 0.00 0.00 0.00 74 1014.9
20260906123032 23 49 4.8 6.4 0.00 0.00 0.00 75 1014.6
20260906121527 23 50 4.8 6.4 0.00 0.00 0.00 75 1014.5
20260906120005 23 47 4.8 6.4 0.00 0.00 0.00 75 1014.2
20260906114504 23 63 4.8 6.4 0.00 0.00 0.00 74 1014.2
20260906113008 23 50 3.2 4.8 0.00 0.00 0.00 74 1014.1
20260906111506 23 66 6.4 6.4 0.00 0.00 0.00 72 1014.0
20260906110012 23 45 3.2 6.4 0.00 0.00 0.00 71 1013.9
20260906104513 24 45 4.8 8.0 0.00 0.00 0.00 69 1013.8
20260906103007 24 32 0.0 0.0 0.00 0.00 0.00 68 1013.8
20260906101508 24 38 0.0 0.0 0.00 0.00 0.00 68 1013.8
20260906100004 25 43 0.0 0.0 0.00 0.00 0.00 67 1013.8
20260906094517 25 43 0.0 0.0 0.00 0.00 0.00 66 1013.6
20260906093011 25 43 0.0 0.0 0.00 0.00 0.00 66 1013.3
20260906091519 25 57 0.0 0.0 0.00 0.00 0.00 65 1013.3
20260906090012 25 82 1.6 4.8 0.00 0.00 0.00 64 1013.4
20260906084515 25 76 1.6 4.8 0.00 0.00 0.00 64 1013.5
20260906083016 25 70 3.2 6.4 0.00 0.00 0.00 65 1013.5
20260906081529 26 89 3.2 6.4 0.00 0.00 0.00 62 1013.4
20260906080011 26 133 4.8 9.7 0.00 0.00 0.00 60 1013.3
20260906074512 26 119 4.8 6.4 0.00 0.00 0.00 60 1013.3
20260906073008 26 135 6.4 8.0 0.00 0.00 0.00 60 1013.2
20260906071513 26 125 8.0 9.7 0.00 0.00 0.00 60 1013.4
20260906070014 26 124 8.0 8.0 0.00 0.00 0.00 58 1013.3
20260906064513 26 113 6.4 8.0 0.00 0.00 0.00 58 1013.4
20260906063013 26 81 3.2 4.8 0.00 0.00 0.00 58 1013.4
20260906061510 27 103 4.8 4.8 0.00 0.00 0.00 57 1013.4
20260906060016 27 121 4.8 4.8 0.00 0.00 0.00 56 1013.4
20260906054516 27 129 6.4 6.4 0.00 0.00 0.00 55 1013.4
20260906053018 27 132 3.2 4.8 0.00 0.00 0.00 55 1013.4
20260906051516 28 129 6.4 6.4 0.00 0.00 0.00 55 1013.4
20260906050033 28 133 6.4 6.4 0.00 0.00 0.00 54 1013.4
20260906044517 28 131 6.4 6.4 0.00 0.00 0.00 53 1013.3
20260906043018 28 127 4.8 4.8 0.00 0.00 0.00 52 1013.4
20260906041518 28 126 3.2 4.8 0.00 0.00 0.00 53 1013.5
20260906040018 28 126 3.2 8.0 0.00 0.00 0.00 52 1013.5
20260906034514 28 120 6.4 6.4 0.00 0.00 0.00 50 1013.6
20260906033024 28 107 4.8 9.7 0.00 0.00 0.00 50 1013.6
20260906031520 29 112 6.4 8.0 0.00 0.00 0.00 49 1013.4
20260906030006 30 113 6.4 8.0 0.00 0.00 0.00 48 1013.2
20260906024510 30 118 6.4 8.0 0.00 0.00 0.00 48 1013.0
20260906023008 30 117 6.4 8.0 0.00 0.00 0.00 47 1012.8
20260906021504 31 113 6.4 8.0 0.00 0.00 0.00 45 1012.6
20260906020009 31 120 6.4 8.0 0.00 0.00 0.00 45 1012.5
20260906014511 32 115 6.4 8.0 0.00 0.00 0.00 44 1012.2
20260906013011 32 124 8.0 11.3 0.00 0.00 0.00 42 1011.9
20260906011512 33 127 9.7 17.7 0.00 0.00 0.00 40 1011.6
20260906010003 34 130 12.9 19.3 0.00 0.00 0.00 39 1011.6
20260906004508 35 131 17.7 24.1 0.00 0.00 0.00 37 1011.5
20260906003014 35 124 12.9 25.7 0.00 0.00 0.00 36 1011.5
20260906001516 36 136 20.9 24.1 0.00 0.00 0.00 35 1011.3
20260906000015 36 143 16.1 24.1 0.00 0.00 0.00 34 1011.2
20260905234504 36 141 11.3 24.1 0.00 0.00 0.00 33 1011.0
20260905233020 37 116 16.1 20.9 0.00 0.00 0.00 32 1010.8
20260905231515 37 119 16.1 22.5 0.00 0.00 0.00 32 1010.8
20260905230015 37 132 11.3 25.7 0.00 0.00 0.00 32 1010.7
20260905224507 37 166 17.7 22.5 0.00 0.00 0.00 31 1010.8
20260905223007 37 147 11.3 24.1 0.00 0.00 0.00 31 1010.7
20260905221511 37 186 12.9 25.7 0.00 0.00 0.00 32 1010.8
20260905220016 37 132 14.5 22.5 0.00 0.00 0.00 32 1010.8
20260905214520 37 127 14.5 24.1 0.00 0.00 0.00 33 1011.1